TimeEDT,TemperatureF,Dew PointF,Humidity,Sea Level PressureIn,VisibilityMPH,Wind Direction,Wind SpeedMPH,Gust SpeedMPH,PrecipitationIn,Events,Conditions,WindDirDegrees,DateUTC
12:15 AM,65.5,65.3,99,29.69,5.0,SSW,5.8,-,N/A,,Overcast,200,2013-07-10 04:15:00
12:35 AM,65.5,65.3,99,29.69,5.0,SW,4.6,-,N/A,,Overcast,230,2013-07-10 04:35:00
12:54 AM,65.5,65.3,99,29.68,4.0,SSW,9.2,-,N/A,Rain,Rain,210,2013-07-10 04:54:00
1:15 AM,65.3,64.9,99,29.67,10.0,SW,12.7,-,N/A,,Overcast,220,2013-07-10 05:15:00
1:35 AM,65.3,64.9,99,29.67,7.0,SSW,9.2,16.1,N/A,,Overcast,210,2013-07-10 05:35:00
1:54 AM,65.5,65.3,99,29.65,10.0,SW,6.9,-,N/A,,Overcast,220,2013-07-10 05:54:00
2:15 AM,66.4,66.0,99,29.65,10.0,WSW,5.8,-,N/A,,Overcast,240,2013-07-10 06:15:00
2:35 AM,68.9,67.1,94,29.65,10.0,West,12.7,19.6,0.01,,Overcast,270,2013-07-10 06:35:00
2:55 AM,68.5,67.1,95,29.66,10.0,West,11.5,17.3,0.01,,Overcast,280,2013-07-10 06:55:00
3:15 AM,68.4,66.9,95,29.66,10.0,West,11.5,20.7,N/A,,Overcast,280,2013-07-10 07:15:00
3:34 AM,68.2,66.7,95,29.67,10.0,West,11.5,17.3,N/A,,Overcast,270,2013-07-10 07:34:00
3:55 AM,68.0,66.2,94,29.68,10.0,West,12.7,20.7,N/A,,Overcast,280,2013-07-10 07:55:00
4:15 AM,67.6,65.5,93,29.68,10.0,WNW,11.5,17.3,N/A,,Overcast,290,2013-07-10 08:15:00
4:34 AM,67.1,64.8,92,29.68,10.0,WNW,9.2,-,N/A,,Mostly Cloudy,290,2013-07-10 08:34:00
4:55 AM,66.6,64.8,94,29.69,10.0,West,8.1,-,N/A,,Mostly Cloudy,280,2013-07-10 08:55:00
5:15 AM,66.6,64.2,92,29.69,10.0,West,8.1,16.1,N/A,,Overcast,280,2013-07-10 09:15:00
5:35 AM,66.6,64.2,92,29.70,10.0,West,9.2,-,N/A,,Mostly Cloudy,270,2013-07-10 09:35:00
5:55 AM,66.0,63.5,92,29.70,10.0,West,11.5,19.6,N/A,,Scattered Clouds,280,2013-07-10 09:55:00
6:14 AM,65.7,63.1,92,29.71,10.0,WNW,16.1,21.9,N/A,,Scattered Clouds,290,2013-07-10 10:14:00
6:35 AM,65.8,63.5,92,29.72,10.0,NW,10.4,-,N/A,,Mostly Cloudy,310,2013-07-10 10:35:00
6:55 AM,65.3,62.6,91,29.73,10.0,WNW,16.1,21.9,N/A,,Overcast,290,2013-07-10 10:55:00
7:14 AM,64.6,60.1,85,29.73,10.0,WNW,16.1,21.9,N/A,,Overcast,300,2013-07-10 11:14:00
7:35 AM,64.4,59.5,84,29.74,10.0,WNW,15.0,24.2,N/A,,Mostly Cloudy,300,2013-07-10 11:35:00
7:55 AM,64.0,58.8,83,29.75,10.0,WNW,15.0,23.0,N/A,,Overcast,300,2013-07-10 11:55:00
8:15 AM,63.5,58.6,84,29.75,10.0,WNW,18.4,25.3,N/A,,Overcast,300,2013-07-10 12:15:00
8:35 AM,63.0,58.3,85,29.75,10.0,NW,18.4,27.6,N/A,,Overcast,320,2013-07-10 12:35:00
8:54 AM,63.5,58.5,84,29.76,10.0,NW,13.8,24.2,N/A,,Overcast,310,2013-07-10 12:54:00
9:15 AM,63.3,58.1,83,29.77,10.0,NW,17.3,28.8,N/A,,Overcast,310,2013-07-10 13:15:00
9:34 AM,63.5,57.7,81,29.78,10.0,NW,17.3,27.6,N/A,,Overcast,310,2013-07-10 13:34:00
9:55 AM,64.6,58.1,79,29.78,10.0,NW,24.2,29.9,N/A,,Overcast,310,2013-07-10 13:55:00
10:15 AM,65.8,58.5,77,29.78,10.0,NW,17.3,27.6,N/A,,Overcast,310,2013-07-10 14:15:00
10:35 AM,66.9,57.6,72,29.78,10.0,NW,15.0,29.9,N/A,,Mostly Cloudy,320,2013-07-10 14:35:00
10:55 AM,66.6,57.6,73,29.80,10.0,NW,11.5,23.0,N/A,,Mostly Cloudy,310,2013-07-10 14:55:00
11:14 AM,67.8,57.6,70,29.79,10.0,NW,15.0,27.6,N/A,,Overcast,320,2013-07-10 15:14:00
11:35 AM,67.6,56.8,68,29.80,10.0,NNW,17.3,27.6,N/A,,Mostly Cloudy,330,2013-07-10 15:35:00
11:55 AM,69.1,57.4,66,29.81,10.0,NW,17.3,26.5,N/A,,Mostly Cloudy,310,2013-07-10 15:55:00
12:14 PM,69.8,57.7,65,29.81,10.0,NW,16.1,25.3,N/A,,Mostly Cloudy,320,2013-07-10 16:14:00
12:35 PM,70.5,57.9,64,29.82,10.0,NW,11.5,19.6,N/A,,Overcast,310,2013-07-10 16:35:00
12:55 PM,70.5,57.0,62,29.83,10.0,NW,16.1,24.2,N/A,,Mostly Cloudy,310,2013-07-10 16:55:00
1:14 PM,70.5,56.5,61,29.83,10.0,NW,19.6,26.5,N/A,,Mostly Cloudy,320,2013-07-10 17:14:00
1:35 PM,71.2,56.3,59,29.84,10.0,NW,19.6,28.8,N/A,,Mostly Cloudy,310,2013-07-10 17:35:00
1:54 PM,70.0,56.3,62,29.86,10.0,NNW,18.4,25.3,N/A,,Overcast,330,2013-07-10 17:54:00
2:15 PM,71.8,56.3,58,29.86,10.0,NW,15.0,24.2,N/A,,Mostly Cloudy,320,2013-07-10 18:15:00
2:35 PM,71.2,57.0,61,29.87,10.0,NNW,13.8,24.2,N/A,,Mostly Cloudy,340,2013-07-10 18:35:00
2:54 PM,71.1,56.1,59,29.86,10.0,NNW,12.7,20.7,N/A,,Mostly Cloudy,330,2013-07-10 18:54:00
3:15 PM,72.5,56.8,58,29.87,10.0,NW,15.0,20.7,N/A,,Mostly Cloudy,310,2013-07-10 19:15:00
3:35 PM,72.3,55.6,56,29.87,10.0,NNW,13.8,24.2,N/A,,Mostly Cloudy,330,2013-07-10 19:35:00
3:54 PM,71.8,54.0,53,29.87,10.0,NW,12.7,24.2,N/A,,Scattered Clouds,310,2013-07-10 19:54:00
4:15 PM,72.5,54.1,52,29.87,10.0,NNW,16.1,23.0,N/A,,Mostly Cloudy,340,2013-07-10 20:15:00
4:34 PM,72.0,54.1,53,29.87,10.0,NNW,12.7,24.2,N/A,,Mostly Cloudy,340,2013-07-10 20:34:00
4:55 PM,71.6,53.6,53,29.87,10.0,NNW,17.3,23.0,N/A,,Mostly Cloudy,340,2013-07-10 20:55:00
5:15 PM,72.3,53.1,51,29.87,10.0,NNW,16.1,23.0,N/A,,Mostly Cloudy,340,2013-07-10 21:15:00
5:35 PM,71.6,53.1,52,29.88,10.0,NNW,12.7,23.0,N/A,,Scattered Clouds,330,2013-07-10 21:35:00
5:55 PM,70.7,53.4,54,29.88,10.0,NNW,6.9,19.6,N/A,,Mostly Cloudy,330,2013-07-10 21:55:00
6:14 PM,72.0,53.6,52,29.88,10.0,NNW,17.3,24.2,N/A,,Mostly Cloudy,330,2013-07-10 22:14:00
6:35 PM,70.9,52.7,53,29.89,10.0,NNW,16.1,19.6,N/A,,Mostly Cloudy,330,2013-07-10 22:35:00
6:55 PM,69.6,52.0,53,29.89,10.0,NNW,11.5,20.7,N/A,,Scattered Clouds,330,2013-07-10 22:55:00
7:14 PM,70.3,51.1,50,29.89,10.0,NW,13.8,20.7,N/A,,Scattered Clouds,320,2013-07-10 23:14:00
7:35 PM,69.6,50.9,51,29.89,10.0,NW,12.7,19.6,N/A,,Scattered Clouds,310,2013-07-10 23:35:00
7:55 PM,68.9,50.9,53,29.89,10.0,NW,17.3,24.2,N/A,,Scattered Clouds,320,2013-07-10 23:55:00
8:14 PM,68.4,51.3,54,29.90,10.0,NNW,13.8,-,N/A,,Clear,330,2013-07-11 00:14:00
8:35 PM,67.5,50.5,55,29.91,10.0,NW,12.7,19.6,N/A,,Clear,320,2013-07-11 00:35:00
8:54 PM,66.2,50.7,57,29.92,10.0,NW,6.9,17.3,N/A,,Clear,310,2013-07-11 00:54:00
9:15 PM,64.4,50.9,62,29.92,10.0,NW,5.8,-,N/A,,Clear,310,2013-07-11 01:15:00
9:35 PM,61.9,51.1,68,29.93,10.0,NW,3.5,-,N/A,,Clear,310,2013-07-11 01:35:00
9:55 PM,59.2,51.8,77,29.93,10.0,Calm,Calm,-,N/A,,Clear,0,2013-07-11 01:55:00
10:15 PM,57.2,51.4,81,29.94,10.0,Calm,Calm,-,N/A,,Clear,0,2013-07-11 02:15:00
10:34 PM,56.1,51.8,85,29.94,10.0,Calm,Calm,-,N/A,,Scattered Clouds,0,2013-07-11 02:34:00
10:55 PM,55.4,51.1,85,29.94,10.0,West,4.6,-,N/A,,Scattered Clouds,280,2013-07-11 02:55:00
10:57 PM,55.9,51.1,84,29.94,10.0,West,4.6,-,N/A,,Scattered Clouds,270,2013-07-11 02:57:00
11:48 PM,54.7,51.1,88,29.95,10.0,Calm,Calm,-,N/A,,Mostly Cloudy,0,2013-07-11 03:48:00
11:53 PM,54.1,51.1,89,29.95,10.0,Calm,Calm,-,N/A,,Scattered Clouds,0,2013-07-11 03:53:00